CZ-6A DEB, 54418

Orbit data source: Space-Track

CZ-6A DEB, 54418 is space debris in SSO originally from a launch on Fri, 11 Nov 2022 UTC launched from the Taiyaun Space Center, China (TSC). Debris objects in space refer to the collection of defunct objects orbiting the Earth. Examples of debris include non-operational satellites, rocket bodies, and fragments generated from explosions, collisions, or faulty payload assembly.

Loading next visibility...
Identifier
54418, 2022-151ES
Orbit
SSO
Country
Flag of CNCN / PRC
Related business
Manufacturer
SAST
Mission
Spacecraft
Bus & Motor
Unknown
Mass
Unknown
Launch date (UTC)
2022-11-11 (3 years ago)
Launch vehicle
Unknown
Launch site
Taiyaun Space Center, China (TSC)
Object type
Payload
Rocket body
Debris
Shape & HBR
Unknown shape, 0.3 m
Radar Cross Section
Medium (>0.1 m² and <1 m²)

Expand to show TLE details & history
Last TLE update: 8 hours ago

TLE from 8 hours ago
0 CZ-6A DEB
1 54418U 22151ES  25355.51622248  .00000183  00000-0  20597-3 0  9991
2 54418  98.8816 282.5245 0240447 302.6546  55.1609 13.70785345155144
Epoch: 2025-12-21T12:23Z
TLE epoch observation values (Epoch: 2025-12-21T12:23:21.622Z)
Latitude
-0.00005°
Longitude
6.35687°
Altitude
901.208 km
Speed
7.451 km/s
True Right ascension
18h 50m 05s
True Declination
0° 00' 00"
Sunlit
Object was in daylight at epoch
Visualization orbit readout
Latitude
Unknown
Longitude
Unknown
Altitude
Unknown
Speed
Unknown
Apparent Right ascension
Unknown
Apparent Declination
Unknown
Sunlit
N/A
Visualization observer readout
Local Sidereal Time
19:29:43
Azimuth
Unknown
Elevation
Unknown
Doppler factor
Unknown
Orbital elements
Apogee altitude
1,171.244 km
Perigee altitude
816.723 km
Semi-major axis
7,372.12 km
Eccentricity
0.02404
Inclination
98.8816°
RAAN
282.5245°
Arg. of periapsis
302.6546°
True anomaly
57.46122°
Mean anomaly
55.1609°
Eccentric anomaly
56.30715°
Mean motion
3.4289 °/min
Orbital period
104.99 mins
BSTAR
0.00020597
Loading maneuver chart data...
Computing Atmospheric mass density...
Loading historical data...
Loading historical data...
Loading historical data...
Loading historical data...
Loading historical data...
Loading historical data...
Loading historical data...

Documentation

Showing up to 5 results
|